Location: Campolattaro
(41.2833°N, 14.7333°E)
Time: 20:50:43
(UTC+00:00)

Cosmos 1680 Rocket - Pass Details

Date: 19 May 2025
Orbit: 757 x 776 km, 74.1° (Epoch: 15 June)

Event Time Altitude Azimuth Distance (km) Brightness Sun altitude
Exits shadow 22:39:26 41° 69° (ENE) 1,108 4.3 -28.6°
Drops below altitude 10° 22:43:21 10° 31° (NNE) 2,303 6.6 -28.6°
Sets 22:45:47 0° 26° (NNE) 3,230 7.6 -28.7°
